Weather reports worldwide

Advertisment
Damaskus/Intl, Syria (40080): temperature & dewpoint: 13.02.2018 17:00:00 - 19.02.2018 17:00:00 (EET)Damaskus/Intl, Syria (40080): wind speed: 13.02.2018 17:00:00 - 19.02.2018 17:00:00 (EET)Damaskus/Intl, Syria (40080): wind direction: 13.02.2018 17:00:00 - 19.02.2018 17:00:00 (EET)Damaskus/Intl, Syria (40080): reduced air pressure: 13.02.2018 17:00:00 - 19.02.2018 17:00:00 (EET)Damaskus/Intl, Syria (40080): visibility: 13.02.2018 17:00:00 - 19.02.2018 17:00:00 (EET)Damaskus/Intl, Syria (40080): precipitation: 13.02.2018 17:00:00 - 19.02.2018 17:00:00 (EET)
Date & Time tt [°C] td [°C] ff [km/h] ff [kn] dd ppp [hPa] vv [km] rr [mm]
19.02.2018 17:00:00 14,8 6,4 22 12 SSW 1015,1 10 -
19.02.2018 16:00:00 16,0 5,0 22 12 SSW - 10 -
19.02.2018 15:00:00 18,0 5,0 22 12 SSW - 10 -
19.02.2018 14:00:00 17,1 6,0 22 12 SSW 1014,1 10 -
19.02.2018 13:00:00 17,0 5,0 18 10 SSW - 10 -
19.02.2018 12:00:00 15,0 5,0 11 6 WSW - 10 -
19.02.2018 11:00:00 13,2 5,4 11 6 W 1016,0 10 -
19.02.2018 10:00:00 10,0 7,0 11 6 W - 10 -
19.02.2018 09:00:00 6,0 5,0 13 7 W - 5 -
19.02.2018 08:00:00 5,0 4,1 8 4 W 1016,5 0,3 -
19.02.2018 07:00:00 3,0 1,0 0 0 N - 0,2 -
19.02.2018 06:00:00 1,0 -1,0 0 0 N - 10 -
19.02.2018 05:00:00 4,0 2,1 8 4 NW 1013,5 10 -
19.02.2018 04:00:00 6,0 4,0 15 8 SW - 10 -
19.02.2018 03:00:00 7,0 5,0 18 10 SW - 10 -
19.02.2018 02:00:00 7,8 5,7 15 8 SW 1012,4 10 -
19.02.2018 01:00:00 8,0 5,0 15 8 SSW - 10 -
19.02.2018 00:00:00 9,0 5,0 18 10 S - 10 -
18.02.2018 23:00:00 9,0 6,1 18 10 S 1011,9 10 -
18.02.2018 22:00:00 10,0 -1,0 11 6 SW - 10 -
18.02.2018 21:00:00 11,0 -2,0 22 12 WSW - 10 -
18.02.2018 20:00:00 11,2 4,4 18 10 SW 1010,8 10 -
18.02.2018 19:00:00 11,0 1,0 11 6 SW - 10 -
18.02.2018 18:00:00 12,0 1,0 34 18 W - 10 -
18.02.2018 17:00:00 14,0 5,3 29 16 W 1008,2 10 -
18.02.2018 16:00:00 15,0 2,0 26 14 W - 10 -
18.02.2018 15:00:00 16,0 5,0 37 20 WSW - 10 -
18.02.2018 14:00:00 15,0 8,5 15 8 WSW 1006,9 10 -
18.02.2018 13:00:00 14,0 5,0 44 24 NW - 10 -
18.02.2018 12:00:00 16,0 4,0 52 28 W - 10 -
18.02.2018 11:00:00 15,0 9,4 44 24 WSW 1006,4 10 -
18.02.2018 10:00:00 14,0 7,0 44 24 WSW - 10 -
18.02.2018 09:00:00 13,0 7,0 26 14 W - 10 -
18.02.2018 08:00:00 11,0 6,8 22 12 W 1008,1 10 -
18.02.2018 07:00:00 10,0 6,0 22 12 WSW - 10 -
18.02.2018 06:00:00 10,0 6,0 18 10 WSW - 10 -
18.02.2018 05:00:00 10,8 4,8 18 10 WSW 1005,7 10 -
18.02.2018 04:00:00 10,0 5,0 29 16 W - 10 -
18.02.2018 03:00:00 10,0 5,0 18 10 SW - 10 -
18.02.2018 02:00:00 9,6 5,7 29 16 WSW 1004,5 10 -
18.02.2018 01:00:00 8,0 6,0 34 18 SW - 10 -
18.02.2018 00:00:00 8,0 5,0 37 20 SSW - 10 -
17.02.2018 23:00:00 7,2 5,1 44 24 SW 1006,0 10 -
17.02.2018 22:00:00 7,0 5,0 37 20 SW - 10 -
17.02.2018 21:00:00 7,0 4,0 37 20 SW - 10 -
17.02.2018 20:00:00 7,2 4,7 44 24 SW 1007,6 10 -
17.02.2018 19:00:00 8,0 4,0 37 20 SW - 10 -
17.02.2018 18:00:00 8,0 4,0 52 28 WSW - 10 -
17.02.2018 17:00:00 8,8 4,2 41 22 SW 1008,0 10 -
17.02.2018 16:00:00 10,0 4,0 44 24 WSW - 10 -
17.02.2018 15:00:00 11,0 5,0 41 22 WSW - 10 -
17.02.2018 14:00:00 11,0 6,6 29 16 WSW 1008,2 10 -
17.02.2018 13:00:00 - - - - - - - -
17.02.2018 12:00:00 9,0 7,0 18 10 SW - 10 -
17.02.2018 11:00:00 8,1 7,0 22 12 W 1010,0 5 -
17.02.2018 10:00:00 8,0 6,0 26 14 WSW - 5 -
17.02.2018 09:00:00 9,0 7,0 11 6 WNW - 5 -
17.02.2018 08:00:00 9,0 7,0 - - - - - -
17.02.2018 07:00:00 10,0 7,0 8 4 WSW - 10 -
17.02.2018 06:00:00 10,0 7,0 11 6 E - 8 -
17.02.2018 05:00:00 10,0 6,8 15 8 ENE 1010,5 10 -
17.02.2018 04:00:00 10,0 7,0 22 12 ENE - 10 -
17.02.2018 03:00:00 10,0 7,0 18 10 NE - 10 -
17.02.2018 02:00:00 10,0 7,0 18 10 E - 10 -
17.02.2018 01:00:00 10,0 7,0 15 8 ENE - 10 -
17.02.2018 00:00:00 10,0 7,0 18 10 E - 10 -
16.02.2018 23:00:00 10,3 6,9 18 10 E 1014,0 10 -
16.02.2018 22:00:00 11,0 7,0 18 10 ENE - 10 -
16.02.2018 21:00:00 11,0 7,0 18 10 ENE - 10 -
16.02.2018 20:00:00 11,0 7,0 18 10 NE - 10 -
16.02.2018 19:00:00 11,0 7,0 26 14 ENE - 10 -
16.02.2018 18:00:00 12,0 7,0 22 12 ENE - 10 -
16.02.2018 17:00:00 12,0 7,0 28 15 ENE - 10 -
16.02.2018 16:00:00 13,0 6,0 37 20 ENE - 10 -
16.02.2018 15:00:00 14,0 6,0 37 20 ENE - 10 -
16.02.2018 14:00:00 14,6 6,2 26 14 ENE 1014,0 10 -
16.02.2018 13:00:00 15,0 6,0 29 16 ENE - 10 -
16.02.2018 12:00:00 14,0 6,0 31 17 NE - 10 -
16.02.2018 11:00:00 13,7 5,2 29 16 ENE 1016,2 10 -
16.02.2018 10:00:00 12,0 5,0 22 12 ENE - 10 -
16.02.2018 09:00:00 10,0 4,0 28 15 ENE - 10 -
16.02.2018 08:00:00 10,0 4,0 28 15 ENE - 10 -
16.02.2018 07:00:00 9,0 4,0 22 12 NE - 10 -
16.02.2018 06:00:00 - - - - - - 0,5 -
16.02.2018 05:00:00 9,4 5,6 22 12 NE 1015,9 10 -
16.02.2018 04:00:00 10,0 4,0 24 13 NE - 10 -
16.02.2018 03:00:00 10,0 5,0 24 13 NE - 10 -
16.02.2018 02:00:00 11,1 7,7 25 14 ENE 1016,3 15 -
16.02.2018 01:00:00 11,0 5,0 26 14 NE - 10 -
16.02.2018 00:00:00 12,0 6,0 26 14 NE - 10 -
15.02.2018 23:00:00 12,2 7,8 21 11 NE 1017,2 10 -
15.02.2018 22:00:00 13,0 5,0 18 10 NE - 10 -
15.02.2018 21:00:00 - - - - - - - -
15.02.2018 20:00:00 13,4 7,7 14 8 ENE 1017,8 15 -
15.02.2018 19:00:00 - - 5 3 - - 8 -
15.02.2018 18:00:00 14,0 4,0 13 7 NE - 10 -
15.02.2018 17:00:00 14,6 6,6 21 11 NE 1017,5 10 -
15.02.2018 16:00:00 16,0 2,0 22 12 E - 10 -
15.02.2018 15:00:00 16,0 3,0 24 13 ENE - 10 -
15.02.2018 14:00:00 16,2 3,6 18 10 ENE 1017,8 10 -
15.02.2018 13:00:00 15,0 3,0 21 11 NE - 10 -
15.02.2018 12:00:00 14,0 4,0 26 14 NE - 10 -
15.02.2018 11:00:00 13,2 8,1 22 12 ENE 1020,9 15 -
15.02.2018 10:00:00 11,0 5,0 26 14 ENE - - -
15.02.2018 09:00:00 9,0 5,0 11 6 ENE - 10 -
15.02.2018 08:00:00 7,0 5,8 15 8 NE 1020,9 10 -
15.02.2018 07:00:00 5,0 3,0 8 4 NNE - 3,0 -
15.02.2018 06:00:00 5,0 3,0 8 4 NNE - 6 -
15.02.2018 05:00:00 5,6 4,2 11 6 NE - 10 -
15.02.2018 04:00:00 5,0 3,0 4 2 NE - 10 -
15.02.2018 03:00:00 4,0 3,0 8 4 N - 10 -
15.02.2018 02:00:00 5,2 4,3 8 4 N 1020,4 10 -
15.02.2018 01:00:00 5,0 2,0 4 2 WNW - 10 -
15.02.2018 00:00:00 7,0 4,0 8 4 ENE - 10 -
14.02.2018 23:00:00 7,4 5,7 8 4 NE 1021,5 10 -
14.02.2018 22:00:00 8,0 5,0 0 0 N - 10 -
14.02.2018 21:00:00 9,0 5,0 0 0 N - 10 -
14.02.2018 20:00:00 10,0 5,8 8 4 SW 1021,9 10 -
14.02.2018 19:00:00 10,0 5,0 0 0 N - 10 -
14.02.2018 18:00:00 11,0 5,0 0 0 N - 10 -
14.02.2018 17:00:00 14,4 5,4 15 8 SSW 1020,6 10 -
14.02.2018 16:00:00 15,0 4,0 11 6 W - 10 -
14.02.2018 15:00:00 15,0 4,0 8 4 W - 10 -
14.02.2018 14:00:00 16,8 7,5 26 14 SW 1020,4 10 -
14.02.2018 13:00:00 15,0 5,0 11 6 W - 10 -
14.02.2018 12:00:00 15,0 6,0 22 12 SW - 10 -
14.02.2018 11:00:00 13,6 8,6 22 12 SSW 1021,2 10 -
14.02.2018 10:00:00 11,0 7,0 31 17 SW - 10 -
14.02.2018 09:00:00 9,0 7,0 18 10 SSW - 10 -
14.02.2018 08:00:00 7,0 4,0 0 0 N - 8 -
14.02.2018 07:00:00 6,0 4,0 21 11 WSW - 5 -
14.02.2018 06:00:00 6,0 5,0 21 11 SSW - 5 -
14.02.2018 05:00:00 6,4 5,5 18 10 SSW 1020,4 5 -
14.02.2018 04:00:00 6,0 5,0 21 11 SW - 6 -
14.02.2018 03:00:00 7,0 4,7 18 10 SSW 1021,5 1,0 0,0
14.02.2018 02:00:00 6,2 4,3 16 9 SSW 1019,4 5 -
14.02.2018 01:00:00 6,0 4,0 18 10 SSW - 10 -
14.02.2018 00:00:00 8,0 4,0 15 8 SW - 10 -
13.02.2018 23:00:00 8,0 5,8 15 8 WSW 1018,5 10 -
13.02.2018 22:00:00 8,0 5,0 16 9 SW - 10 -
13.02.2018 21:00:00 8,0 4,0 24 13 WSW - 10 -
13.02.2018 20:00:00 4,8 5,3 18 10 SW 1017,1 10 -
13.02.2018 19:00:00 10,0 3,0 11 6 SW - 10 -
13.02.2018 18:00:00 10,0 5,0 16 9 WSW - 10 -
13.02.2018 17:00:00 12,0 4,3 21 11 WSW 1014,2 10 -

tt = temperature
td = dewpoint
ff = wind speed
dd = wind direction
ppp = reduced air pressure
vv = visibility
rr = precipitation

Next stations